Location: Anumalkud?ru
(16.4847°N, 80.6636°E)
Time: 09:27:24
(UTC+00:00)

Cosmos 2219 Rocket - Pass Details

Date: 11 April 2026
Orbit: 826 x 845 km, 71.0° (Epoch: 12 May)

Event Time Altitude Azimuth Distance (km) Brightness Sun altitude
Rises 13:58:50 0° 211° (SSW) 3,356 5.5 -16.5°
Reaches altitude 10° 14:01:22 10° 217° (SW) 2,422 4.9 -17.1°
Maximum altitude 14:06:37 44° 288° (WNW) 1,132 3.4 -18.3°
Drops below altitude 10° 14:11:53 10° 360° (N) 2,422 4.8 -19.5°
Sets 14:14:26 0° 7° (N) 3,357 5.4 -20.1°
